This is the latest recevied weather packets stored in our database for station/object LU3HGB-WX. If no packets are shown the sender has not sent any weather packets the latest 10 day(s).
| Time | Temp. | Humidity | Pressure | Rain* | Wind** | Luminosity | Snow |
|---|---|---|---|---|---|---|---|
| 1788194860 | 18.89° C | 49% | 1017 hPa | 0 mm | - | 263 W/m² | - |
| 1788194560 | 20° C | 49% | 1016 hPa | 0 mm | - | 223 W/m² | - |
| 1788194260 | 20° C | 50% | 1016 hPa | 0 mm | - | 707 W/m² | - |
| 1788193960 | 19.44° C | 52% | 1016 hPa | 0 mm | - | 1174 W/m² | - |
| 1788193660 | 19.44° C | 53% | 1016 hPa | 0 mm | - | 664 W/m² | - |
| 1788193359 | 19.44° C | 52% | 1016 hPa | 0 mm | - | 602 W/m² | - |
| 1788193060 | 19.44° C | 52% | 1016 hPa | 0 mm | - | 614 W/m² | - |
| 1788192778 | 19.44° C | 52% | 1016 hPa | 0 mm | - | 572 W/m² | - |
| 1788192460 | 18.89° C | 54% | 1016 hPa | 0 mm | - | 718 W/m² | - |
| 1788192159 | 18.89° C | 54% | 1016 hPa | 0 mm | - | 418 W/m² | - |
| 1788191861 | 19.44° C | 55% | 1016 hPa | 0 mm | - | 424 W/m² | - |
| 1788191559 | 19.44° C | 54% | 1016 hPa | 0 mm | - | 330 W/m² | - |
| 1788191260 | 19.44° C | 54% | 1016 hPa | 0 mm | - | 312 W/m² | - |
| 1788190960 | 20° C | 53% | 1016 hPa | 0 mm | - | 371 W/m² | - |
| 1788190660 | 20° C | 52% | 1016 hPa | 0 mm | - | 617 W/m² | - |
| 1788190360 | 20° C | 53% | 1016 hPa | 0 mm | - | 930 W/m² | - |
| 1788190059 | 20.56° C | 52% | 1016 hPa | 0 mm | - | 417 W/m² | - |
| 1788189760 | 21.11° C | 50% | 1016 hPa | 0 mm | - | 628 W/m² | - |
| 1788189460 | 20.56° C | 51% | 1016 hPa | 0 mm | - | 1085 W/m² | - |
| 1788189160 | 20.56° C | 52% | 1016 hPa | 0 mm | - | 912 W/m² | - |
| 1788188860 | 20.56° C | 50% | 1016 hPa | 0 mm | - | 817 W/m² | - |
| 1788188560 | 20.56° C | 51% | 1015 hPa | 0 mm | - | 880 W/m² | - |
| 1788188260 | 20° C | 52% | 1015 hPa | 0 mm | - | 872 W/m² | - |
| 1788187960 | 20° C | 49% | 1016 hPa | 0 mm | - | 461 W/m² | - |
| 1788187660 | 20° C | 51% | 1015 hPa | 0 mm | - | 838 W/m² | - |
* Rain latest hour (hover to see other rain measurements)
** Current wind speed in m/s (hover to see current wind gust speed)